Wind_Speed
26 27 27 28 28 29 31 29 35 36 37 45 42 41 42 43 41 36 31 21 22 15 20 22 32 35 34 32 32 46 57 66 80 83 86 87 85 83 82 80 78 74 72 69 66 65 64 63 58
21 23 29 31 30 32 31 34 34 39 39 40 44 42 43 43 38 39 38 34 27 26 19 21 25 32 38 38 34 35 48 62 70 81 85 89 90 88 86 85 83 79 76 74 71 68 67 66 62
23 25 25 28 33 38 42 42 41 43 44 42 38 41 41 39 45 44 44 37 27 21 16 19 26 28 35 43 40 38 38 48 64 71 82 88 91 92 90 88 87 85 82 78 75 72 71 69 66
19 23 26 35 42 43 37 40 40 44 49 52 49 44 48 43 44 42 46 46 43 29 35 32 22 32 33 35 42 44 41 44 51 65 73 86 91 92 93 92 89 87 87 83 78 76 74 73 71
24 32 38 39 34 35 40 42 44 44 47 52 54 51 50 51 51 44 45 43 44 35 48 37 26 22 26 38 38 43 46 45 47 53 68 74 87 91 92 94 92 91 89 87 84 80 78 76 75
28 31 29 36 37 39 43 46 44 44 46 48 51 55 55 51 47 50 57 44 42 44 49 51 24 22 36 28 38 43 47 50 51 52 57 69 80 87 93 96 97 96 93 90 88 84 81 80 80
32 34 37 46 43 41 49 54 50 50 51 52 47 53 56 56 58 54 49 50 51 37 53 41 52 45 26 43 32 40 46 48 52 55 55 59 71 81 84 99 97 98 97 94 90 88 87 83 82
35 36 38 32 30 43 52 56 54 51 54 54 50 51 63 60 61 62 53 54 57 54 46 51 44 56 42 28 27 37 47 47 53 57 56 60 59 72 83 84 100 99 95 98 94 92 91 88 86
34 35 37 31 30 41 49 51 53 54 55 56 52 55 65 67 68 70 66 62 64 55 57 59 45 53 48 54 30 32 42 43 52 57 58 61 64 59 70 83 87 101 101 99 92 95 92 91 92
34 39 38 39 39 45 52 50 51 56 58 60 60 60 68 72 74 75 75 72 72 73 72 65 69 47 49 51 41 37 32 40 46 55 57 59 60 62 63 67 82 88 98 101 99 94 94 93 92
43 50 44 44 45 41 45 55 58 57 59 60 58 66 72 71 77 80 85 81 81 87 77 79 72 65 69 60 52 45 40 38 41 41 58 60 60 65 62 63 67 81 88 93 96 93 95 96 95
57 49 42 46 47 47 58 61 62 65 65 62 62 71 75 77 84 87 88 86 94 85 80 82 77 73 75 59 55 60 53 59 40 39 44 51 62 63 66 63 61 67 79 90 96 88 83 105 97
45 46 44 49 46 55 57 63 65 66 66 63 66 77 77 84 86 92 91 94 95 87 79 82 81 79 82 80 58 64 64 59 49 46 43 50 53 63 64 65 65 62 71 87 96 109 107 104 102
40 46 48 50 51 53 58 65 69 70 71 72 74 76 82 87 95 97 97 105 101 91 83 78 85 91 88 82 76 70 73 64 53 47 47 44 54 58 67 68 66 66 69 78 96 103 108 105 95
40 47 53 51 50 50 53 65 64 65 64 70 80 80 85 88 95 102 107 103 98 91 86 80 82 89 89 82 90 80 71 61 61 59 58 53 51 61 63 66 68 66 67 76 80 98 103 108 101
47 48 49 56 57 55 60 66 71 70 66 71 77 81 88 92 98 106 108 104 96 92 93 94 92 92 92 91 90 88 76 72 71 62 59 57 51 51 59 70 67 69 68 71 74 82 104 108 113
47 47 49 57 59 63 67 72 77 76 76 81 83 84 89 93 99 106 113 113 103 96 92 93 99 102 102 101 100 96 81 81 78 69 65 64 55 54 56 64 71 70 71 69 73 77 92 108 114
49 50 56 55 58 66 71 76 80 78 74 78 83 91 91 100 103 113 119 114 105 100 100 98 98 109 113 106 100 100 95 89 80 71 70 67 63 53 57 61 68 72 73 70 72 79 85 104 110
58 61 64 67 67 67 76 74 80 82 85 85 87 89 99 105 112 121 116 107 100 101 103 106 104 98 106 112 96 89 89 85 80 78 69 70 64 59 62 62 68 71 75 76 75 77 82 92 108
62 66 68 69 72 69 69 71 76 81 84 89 94 99 107 111 122 127 121 118 112 99 96 96 101 104 98 103 98 88 85 80 79 77 72 72 69 65 66 66 70 70 76 76 75 76 77 82 99
66 67 70 71 73 75 81 80 87 89 93 97 100 106 115 117 126 129 127 121 104 98 92 91 92 96 96 87 87 76 81 79 76 74 72 69 74 71 74 73 69 66 73 78 79 76 80 79 87
63 69 73 77 81 81 89 86 90 95 94 98 106 114 120 132 135 143 140 126 111 94 84 84 77 81 87 75 72 73 69 70 74 74 75 69 76 76 75 77 69 68 71 78 77 77 80 81 82
71 76 78 79 76 80 83 91 95 102 104 109 114 120 127 136 148 150 144 124 102 90 81 80 69 67 70 65 64 68 67 69 69 74 74 70 77 79 76 79 73 72 70 74 79 75 74 77 79
75 77 78 80 82 83 90 98 99 105 111 117 124 127 136 141 156 155 143 127 104 96 84 70 67 65 63 56 56 61 65 64 69 73 76 75 77 81 79 81 77 75 72 71 76 72 73 75 79
83 88 93 90 89 92 97 103 113 111 119 126 130 135 142 148 158 157 145 116 94 87 79 65 65 60 57 53 49 55 62 60 61 73 78 79 78 81 77 83 80 74 70 69 72 69 70 75 77
87 93 100 102 97 92 94 110 114 119 126 131 136 143 147 154 162 161 142 112 96 83 72 58 58 54 53 50 49 53 59 62 58 69 75 79 80 82 84 84 80 76 72 70 70 70 69 73 75
92 97 104 106 107 104 104 115 116 124 127 129 139 148 152 158 169 160 141 110 96 83 69 55 47 52 50 49 49 53 56 65 60 66 74 77 79 84 89 86 85 82 75 73 72 71 69 69 76
99 103 107 111 115 115 108 115 125 130 133 133 140 149 154 159 164 156 130 106 94 80 68 58 47 50 50 50 47 51 55 60 64 67 76 78 81 84 91 89 89 84 77 76 73 71 66 70 77
95 101 104 111 116 122 124 116 130 136 138 143 148 154 160 164 165 152 119 104 88 77 65 59 50 48 46 48 45 48 51 56 63 69 78 78 80 86 94 94 91 90 79 77 72 68 65 67 69
102 110 114 119 119 122 127 123 131 139 142 151 156 161 164 164 168 149 112 98 87 72 62 56 49 45 44 43 43 45 49 53 61 70 77 79 80 86 92 92 93 92 84 78 74 67 66 64 66
Wind_Direction
4 5 3 357 350 352 350 345 347 346 347 346 351 350 352 350 351 352 348 358 346 335 296 278 275 276 270 259 236 238 234 229 226 225 223 225 224 225 225 225 224 226 226 225 224 226 228 229 229
359 356 349 350 349 344 340 337 333 340 344 347 346 350 349 348 345 346 347 349 357 343 310 280 261 261 267 269 255 234 237 236 229 228 225 224 225 225 226 225 224 225 226 227 228 226 229 229 229
344 343 347 350 338 337 334 334 335 332 333 339 346 346 348 344 338 342 347 347 346 345 345 303 268 250 259 261 262 249 241 237 237 231 229 227 225 224 226 227 226 225 226 227 228 229 228 230 231
350 345 338 328 327 330 330 332 335 342 337 336 338 340 343 340 344 342 343 335 338 337 329 338 292 269 264 251 262 264 248 239 236 236 233 230 228 226 225 225 227 228 226 226 229 229 231 229 232
331 329 328 322 332 330 332 328 334 340 337 337 339 341 342 337 339 343 341 337 336 323 330 316 321 310 275 267 258 260 261 247 235 236 236 233 231 230 228 226 226 228 229 228 228 230 231 232 231
329 330 338 338 331 340 339 344 332 338 335 334 335 336 339 341 341 338 337 332 329 325 323 327 293 311 314 280 261 250 257 261 253 238 235 234 233 231 229 229 226 227 229 229 229 229 231 233 233
333 330 325 323 327 337 340 342 343 342 339 338 345 348 348 347 339 339 335 330 325 322 324 319 321 317 299 314 279 255 248 254 255 252 244 236 234 234 232 229 230 227 228 229 229 232 231 232 234
327 326 328 336 343 341 337 337 337 341 338 346 342 348 348 343 343 337 331 327 322 329 317 315 316 319 308 308 287 262 249 243 244 252 256 248 239 234 233 232 229 229 229 229 231 232 234 233 234
322 328 327 333 330 330 327 326 329 333 335 339 346 343 345 343 341 338 334 330 327 319 317 319 313 314 314 318 301 267 249 256 247 244 249 257 252 240 234 233 232 229 229 230 229 234 236 236 235
327 325 332 326 324 326 322 318 325 329 331 337 339 341 339 341 341 338 335 336 330 324 321 316 316 308 311 308 293 298 253 277 253 244 246 251 255 251 241 235 232 232 229 230 231 232 234 237 237
327 329 331 329 334 334 328 330 331 328 330 334 336 336 337 338 338 338 337 334 331 331 319 312 312 311 311 306 294 299 283 295 259 253 247 244 249 254 253 244 232 230 230 229 231 235 236 235 237
325 326 328 331 340 343 332 329 329 329 329 333 332 338 333 337 338 338 335 333 334 326 318 310 307 306 306 308 293 298 286 290 275 261 252 251 244 239 250 250 241 229 226 226 224 228 234 235 233
327 324 320 328 334 334 328 325 327 326 329 335 336 330 335 338 337 336 335 331 330 324 317 308 307 303 302 302 279 293 292 287 280 267 258 252 252 239 240 247 244 233 225 223 224 226 226 235 236
329 331 332 333 333 331 327 325 328 331 332 334 333 333 340 338 337 335 332 331 328 322 314 304 299 300 299 298 293 293 291 278 275 271 266 262 250 245 237 239 244 236 225 226 223 226 230 232 232
342 339 336 338 338 334 332 327 331 333 334 332 328 329 335 336 337 335 332 329 325 320 311 306 298 295 288 288 294 291 289 272 279 275 267 256 261 248 242 233 238 240 230 226 225 223 226 228 230
332 333 330 328 328 330 329 324 324 330 331 328 329 334 337 336 337 335 334 329 323 318 314 308 301 295 290 288 287 286 286 273 277 268 261 256 265 250 246 235 229 238 234 230 225 224 224 226 230
333 332 332 330 329 328 326 325 323 321 324 325 327 330 330 331 329 331 332 333 324 317 312 307 299 293 290 287 287 284 279 277 275 265 264 255 259 255 242 238 228 228 236 230 223 222 223 227 230
326 329 330 326 324 325 321 321 318 321 326 330 330 329 330 332 334 334 335 330 325 318 312 303 294 289 288 286 283 280 276 274 265 257 254 250 254 258 242 238 231 223 230 230 225 222 222 225 228
319 322 325 325 322 320 320 315 319 325 328 327 326 336 334 332 333 333 332 328 319 316 311 303 295 291 287 286 281 277 273 270 265 259 246 246 252 249 240 238 234 224 225 229 224 219 221 223 226
319 321 322 321 322 321 321 325 324 320 321 330 336 336 337 336 337 336 333 328 324 320 311 302 296 291 283 281 277 272 267 263 260 256 248 245 242 241 238 236 237 224 222 227 227 224 220 223 225
321 319 318 316 315 316 316 320 317 317 327 330 337 335 338 337 337 338 333 328 325 317 309 300 294 286 282 279 277 270 265 259 256 251 248 238 237 234 232 234 234 230 224 223 225 225 222 223 226
321 320 318 318 318 319 315 317 320 322 329 336 335 335 332 333 333 336 335 331 326 317 309 298 291 283 281 276 269 265 255 252 250 244 243 233 233 230 230 231 230 231 226 223 223 226 224 223 226
313 314 318 320 324 324 326 326 325 328 333 339 335 335 335 338 336 338 336 330 322 315 310 306 298 283 277 276 269 262 252 244 242 240 239 230 227 228 226 227 227 227 226 223 221 224 228 224 225
317 315 316 317 319 323 327 330 326 329 338 338 336 336 335 334 336 337 337 332 326 321 318 309 298 286 276 271 264 257 253 244 236 235 231 229 222 225 222 225 222 224 224 223 221 222 225 224 224
316 314 315 314 315 322 326 329 328 330 339 335 333 334 335 337 337 336 336 330 324 320 317 308 298 286 275 269 261 252 249 243 232 233 228 225 219 220 221 223 219 220 218 223 220 220 224 224 224
313 315 316 319 322 326 329 331 331 333 336 335 332 335 335 336 335 337 335 327 321 322 317 309 297 286 275 267 261 257 249 245 235 230 229 225 218 216 218 218 216 216 215 217 218 219 222 222 221
313 314 316 319 326 331 328 332 329 337 330 330 329 333 334 333 334 335 334 326 320 323 317 307 298 287 274 269 260 254 250 246 234 227 226 224 219 215 214 212 213 212 211 213 215 217 221 223 222
313 316 315 319 325 330 332 330 323 331 331 328 327 331 332 331 333 333 333 323 322 325 318 309 296 284 276 267 262 252 246 244 237 223 221 221 217 213 215 209 207 210 208 209 212 216 219 225 225
313 320 320 323 326 324 328 329 326 330 330 328 329 331 332 331 332 335 331 324 323 325 318 308 299 288 276 268 259 250 242 240 236 222 216 216 216 211 211 208 205 209 207 207 208 215 222 225 226
314 316 321 326 325 325 328 328 326 329 329 328 329 331 331 330 332 333 329 323 324 325 318 308 298 289 282 268 256 247 242 235 230 223 211 211 213 209 212 207 205 209 204 207 206 213 218 225 230
Height
10816 10812 10808 10803 10799 10795 10791 10787 10781 10779 10777 10772 10771 10768 10766 10762 10759 10755 10752 10748 10742 10739 10737 10735 10732 10727 10730 10733 10736 10738 10738 10742 10747 10754 10760 10767 10773 10777 10783 10789 10795 10801 10807 10812 10818 10823 10828 10832 10835
10816 10811 10806 10800 10795 10792 10789 10785 10780 10776 10775 10771 10768 10764 10761 10758 10754 10751 10750 10743 10740 10737 10733 10728 10728 10725 10722 10723 10729 10730 10731 10734 10736 10741 10747 10752 10760 10766 10771 10777 10783 10789 10796 10803 10808 10813 10819 10823 10827
10815 10811 10806 10798 10793 10788 10785 10780 10775 10769 10769 10768 10767 10765 10761 10755 10752 10750 10747 10741 10735 10733 10727 10725 10720 10720 10721 10716 10715 10721 10725 10724 10728 10730 10734 10740 10745 10750 10759 10765 10771 10777 10784 10791 10798 10803 10807 10813 10817
10812 10809 10805 10798 10791 10785 10778 10776 10771 10762 10755 10756 10763 10760 10757 10753 10749 10746 10741 10734 10731 10729 10726 10723 10717 10715 10710 10713 10708 10707 10711 10714 10715 10719 10722 10726 10731 10737 10744 10751 10759 10767 10772 10779 10786 10791 10796 10802 10806
10811 10807 10802 10794 10787 10780 10773 10770 10767 10760 10753 10748 10747 10746 10745 10744 10740 10739 10734 10730 10726 10722 10719 10716 10712 10709 10706 10702 10705 10699 10697 10701 10703 10704 10708 10713 10720 10726 10734 10740 10748 10753 10761 10767 10772 10778 10784 10789 10793
10810 10805 10799 10792 10784 10775 10768 10760 10759 10755 10748 10746 10743 10737 10735 10730 10728 10724 10721 10722 10719 10714 10711 10709 10704 10702 10698 10695 10693 10694 10691 10687 10692 10693 10693 10698 10703 10710 10717 10726 10732 10740 10747 10754 10760 10763 10769 10776 10780
10810 10806 10799 10789 10780 10770 10761 10753 10749 10743 10740 10738 10739 10730 10725 10720 10718 10717 10713 10707 10708 10709 10703 10699 10695 10695 10689 10686 10683 10681 10682 10681 10677 10679 10683 10685 10688 10694 10699 10708 10716 10726 10733 10739 10746 10751 10755 10762 10766
10806 10803 10799 10791 10780 10769 10756 10748 10741 10739 10733 10732 10729 10729 10720 10713 10708 10703 10704 10699 10693 10689 10695 10688 10687 10685 10680 10676 10672 10669 10670 10671 10670 10665 10665 10671 10676 10678 10683 10690 10698 10709 10718 10725 10735 10739 10742 10752 10754
10804 10800 10798 10791 10779 10766 10754 10747 10738 10731 10728 10726 10725 10719 10711 10704 10698 10691 10690 10686 10681 10680 10676 10674 10677 10672 10670 10666 10663 10661 10660 10659 10658 10658 10654 10653 10659 10666 10668 10673 10680 10691 10702 10710 10720 10725 10733 10735 10737
10800 10794 10791 10784 10776 10764 10751 10742 10738 10728 10725 10719 10713 10711 10702 10692 10685 10679 10675 10672 10667 10662 10656 10659 10655 10652 10656 10656 10654 10652 10650 10648 10644 10645 10646 10643 10641 10646 10656 10659 10664 10673 10685 10696 10704 10713 10715 10719 10722
10794 10788 10781 10775 10769 10759 10744 10732 10728 10723 10718 10714 10710 10698 10689 10682 10674 10668 10661 10654 10652 10644 10642 10641 10641 10641 10638 10641 10639 10639 10637 10635 10634 10631 10632 10632 10634 10630 10634 10643 10650 10657 10670 10681 10694 10700 10699 10702 10707
10787 10783 10777 10769 10761 10753 10739 10727 10721 10713 10710 10707 10700 10691 10680 10671 10663 10655 10649 10643 10636 10629 10625 10623 10620 10624 10624 10622 10623 10621 10620 10621 10621 10620 10614 10615 10616 10621 10617 10623 10634 10642 10652 10664 10675 10679 10675 10674 10693
10782 10773 10770 10763 10756 10749 10732 10720 10715 10707 10700 10696 10689 10677 10670 10660 10650 10640 10633 10626 10620 10613 10609 10606 10598 10600 10600 10603 10601 10604 10603 10603 10603 10603 10602 10600 10598 10600 10606 10605 10615 10625 10633 10640 10650 10654 10659 10664 10678
10780 10770 10761 10756 10749 10739 10724 10712 10705 10699 10688 10681 10675 10666 10657 10646 10636 10626 10616 10606 10596 10590 10586 10587 10585 10580 10577 10581 10584 10582 10584 10582 10583 10584 10585 10585 10584 10583 10585 10591 10594 10603 10613 10619 10628 10638 10648 10651 10656
10775 10765 10753 10748 10738 10731 10723 10702 10703 10695 10687 10674 10663 10653 10642 10631 10622 10614 10603 10591 10579 10568 10562 10559 10554 10554 10553 10553 10551 10556 10558 10561 10560 10560 10563 10565 10565 10567 10567 10572 10577 10582 10592 10599 10609 10619 10627 10634 10638
10767 10761 10753 10739 10729 10720 10711 10698 10691 10690 10679 10668 10655 10643 10631 10619 10611 10601 10587 10572 10558 10545 10531 10522 10524 10522 10522 10523 10525 10527 10535 10532 10538 10537 10541 10542 10545 10546 10550 10553 10561 10564 10572 10580 10592 10602 10608 10614 10620
10756 10754 10746 10736 10723 10710 10698 10690 10684 10678 10667 10655 10641 10631 10617 10605 10594 10580 10564 10549 10536 10525 10514 10501 10484 10479 10486 10488 10492 10492 10504 10508 10511 10514 10517 10519 10523 10526 10531 10534 10539 10547 10550 10560 10572 10581 10591 10599 10602
10746 10743 10735 10729 10719 10706 10687 10678 10672 10663 10652 10640 10627 10615 10602 10592 10578 10562 10543 10524 10506 10492 10480 10470 10461 10446 10441 10448 10458 10462 10467 10473 10480 10490 10493 10496 10502 10505 10510 10514 10521 10527 10532 10538 10550 10560 10570 10577 10586
10733 10728 10723 10715 10706 10700 10676 10667 10655 10644 10635 10625 10615 10598 10584 10570 10556 10538 10520 10504 10486 10466 10447 10423 10420 10422 10412 10407 10418 10421 10424 10432 10443 10454 10467 10473 10477 10485 10488 10492 10499 10507 10514 10518 10529 10537 10548 10558 10567
10719 10714 10707 10700 10690 10684 10671 10656 10645 10630 10624 10610 10592 10579 10564 10546 10527 10510 10491 10473 10457 10439 10422 10401 10384 10372 10377 10372 10376 10385 10389 10402 10410 10421 10438 10448 10452 10459 10464 10469 10477 10487 10493 10504 10511 10520 10530 10539 10546
10703 10700 10693 10686 10678 10660 10655 10644 10629 10614 10601 10585 10568 10554 10532 10516 10502 10483 10463 10442 10427 10406 10386 10368 10354 10334 10331 10339 10337 10350 10357 10369 10378 10390 10404 10418 10424 10432 10440 10448 10455 10469 10477 10487 10493 10498 10508 10517 10526
10693 10684 10675 10666 10657 10653 10629 10626 10608 10589 10578 10562 10543 10526 10506 10487 10471 10446 10420 10402 10383 10367 10353 10338 10326 10306 10296 10305 10309 10310 10322 10333 10347 10358 10370 10389 10398 10409 10417 10428 10436 10447 10456 10468 10476 10481 10488 10497 10505
10674 10666 10656 10648 10639 10633 10611 10593 10575 10558 10546 10532 10515 10499 10478 10459 10432 10410 10391 10366 10345 10334 10320 10300 10290 10279 10273 10275 10279 10282 10290 10301 10316 10329 10342 10361 10374 10384 10395 10406 10416 10426 10436 10449 10458 10464 10472 10481 10491
10657 10647 10639 10631 10622 10611 10590 10569 10562 10530 10513 10500 10485 10468 10446 10428 10407 10380 10360 10335 10311 10288 10280 10273 10259 10249 10247 10250 10253 10255 10260 10274 10287 10298 10314 10331 10347 10359 10372 10382 10394 10406 10417 10431 10441 10447 10454 10462 10472
10638 10628 10617 10616 10607 10595 10569 10545 10516 10501 10487 10471 10454 10441 10419 10394 10373 10348 10329 10306 10293 10276 10257 10247 10232 10222 10221 10224 10229 10231 10232 10244 10261 10270 10284 10301 10319 10333 10349 10362 10375 10387 10399 10413 10422 10431 10437 10445 10454
10618 10608 10592 10579 10578 10578 10562 10529 10502 10478 10461 10445 10427 10407 10385 10365 10346 10322 10299 10276 10262 10253 10238 10226 10213 10204 10200 10203 10206 10210 10213 10217 10236 10246 10260 10275 10293 10308 10325 10340 10356 10365 10380 10392 10405 10413 10421 10428 10438
10597 10585 10571 10558 10548 10538 10534 10509 10488 10465 10447 10428 10406 10387 10363 10342 10320 10301 10279 10258 10240 10229 10216 10206 10197 10186 10182 10184 10186 10189 10196 10197 10210 10225 10237 10256 10271 10288 10298 10315 10331 10346 10360 10374 10388 10397 10406 10416 10420
10578 10564 10547 10533 10512 10504 10513 10489 10448 10441 10428 10415 10393 10377 10355 10328 10309 10289 10266 10238 10218 10204 10194 10184 10179 10169 10165 10162 10165 10168 10172 10180 10189 10203 10212 10230 10247 10262 10277 10292 10309 10327 10341 10356 10371 10384 10394 10402 10407
10558 10542 10525 10507 10490 10471 10464 10481 10430 10412 10393 10378 10365 10348 10325 10300 10278 10252 10235 10213 10200 10185 10175 10165 10159 10152 10148 10146 10147 10150 10153 10160 10169 10180 10190 10209 10227 10243 10257 10272 10287 10304 10325 10340 10356 10372 10382 10391 10399
10535 10516 10501 10480 10472 10456 10438 10444 10416 10396 10374 10346 10333 10318 10302 10279 10249 10231 10211 10194 10181 10169 10157 10145 10138 10134 10130 10128 10127 10130 10134 10140 10149 10160 10169 10187 10208 10225 10244 10257 10272 10289 10306 10323 10340 10357 10371 10382 10390